TimeAKST,TemperatureF,Dew PointF,Humidity,Sea Level PressureIn,VisibilityMPH,Wind Direction,Wind SpeedMPH,Gust SpeedMPH,PrecipitationIn,Events,Conditions,WindDirDegrees,DateUTC
12:53 AM,27.0,24.1,89,29.70,10.0,NE,3.5,-,0.00,,Overcast,40,2013-01-31 09:53:00
1:53 AM,27.0,24.1,89,29.73,10.0,Calm,Calm,-,N/A,,Overcast,0,2013-01-31 10:53:00
2:53 AM,28.0,24.1,85,29.74,5.0,Calm,Calm,-,0.01,Snow,Light Snow,0,2013-01-31 11:53:00
3:53 AM,28.0,25.0,88,29.74,5.0,East,6.9,-,0.01,Snow,Light Snow,90,2013-01-31 12:53:00
4:53 AM,28.9,25.0,85,29.75,5.0,Calm,Calm,-,0.01,Snow,Light Snow,0,2013-01-31 13:53:00
5:13 AM,28.4,26.6,93,29.75,2.0,Calm,Calm,-,0.01,Snow,Light Snow,0,2013-01-31 14:13:00
5:21 AM,28.4,26.6,93,29.74,1.5,Calm,Calm,-,0.01,Snow,Light Snow,0,2013-01-31 14:21:00
5:50 AM,28.4,26.6,93,29.75,2.0,East,3.5,-,0.02,Snow,Light Snow,90,2013-01-31 14:50:00
5:53 AM,28.9,26.1,89,29.75,2.0,East,4.6,-,0.02,Snow,Light Snow,80,2013-01-31 14:53:00
6:26 AM,28.4,26.6,93,29.76,5.0,Calm,Calm,-,0.00,Snow,Light Snow,0,2013-01-31 15:26:00
6:46 AM,28.4,26.6,93,29.76,5.0,Calm,Calm,-,0.00,Rain-Snow,Light Freezing Rain,0,2013-01-31 15:46:00
6:53 AM,28.9,27.0,92,29.78,5.0,Calm,Calm,-,0.00,Rain-Snow,Light Freezing Rain,0,2013-01-31 15:53:00
7:06 AM,28.4,26.6,93,29.78,5.0,NNW,3.5,-,0.00,Rain-Snow,Light Freezing Rain,330,2013-01-31 16:06:00
7:53 AM,28.9,26.1,89,29.79,3.0,East,8.1,-,0.00,Rain-Snow,Light Freezing Rain,80,2013-01-31 16:53:00
8:53 AM,30.0,28.0,92,29.80,7.0,Calm,Calm,-,0.01,Rain-Snow,Light Freezing Rain,0,2013-01-31 17:53:00
8:57 AM,30.2,26.6,86,29.79,5.0,Calm,Calm,-,0.00,,Light Freezing Drizzle,0,2013-01-31 17:57:00
9:50 AM,30.2,28.4,93,29.81,3.0,Calm,Calm,-,0.00,,Light Freezing Drizzle,0,2013-01-31 18:50:00
9:53 AM,30.0,28.0,92,29.82,3.0,Calm,Calm,-,0.00,,Light Freezing Drizzle,0,2013-01-31 18:53:00
10:07 AM,30.2,28.4,93,29.81,2.5,Calm,Calm,-,0.00,,Light Freezing Drizzle,0,2013-01-31 19:07:00
10:28 AM,30.2,28.4,93,29.83,1.0,NW,4.6,-,0.00,,Light Freezing Drizzle,320,2013-01-31 19:28:00
10:53 AM,30.0,28.0,92,29.84,1.0,Calm,Calm,-,0.00,,Light Freezing Drizzle,0,2013-01-31 19:53:00
11:10 AM,30.2,26.6,86,29.84,1.5,Calm,Calm,-,0.00,,Light Freezing Drizzle,0,2013-01-31 20:10:00
11:15 AM,30.2,26.6,86,29.84,1.5,Calm,Calm,-,0.00,Snow,Light Freezing Drizzle,0,2013-01-31 20:15:00
11:36 AM,30.2,26.6,86,29.85,1.5,Calm,Calm,-,0.00,Snow,Light Snow,0,2013-01-31 20:36:00
11:46 AM,30.2,26.6,86,29.85,1.5,ENE,4.6,-,0.01,Snow,Light Snow,70,2013-01-31 20:46:00
11:53 AM,30.0,28.0,92,29.86,1.5,ENE,3.5,-,0.01,Snow,Light Snow,70,2013-01-31 20:53:00
12:30 PM,30.2,28.4,93,29.86,1.5,East,3.5,-,0.00,,Overcast,80,2013-01-31 21:30:00
12:53 PM,30.0,28.0,92,29.86,1.5,Calm,Calm,-,0.00,,Overcast,0,2013-01-31 21:53:00
1:45 PM,30.2,28.4,93,29.87,0.5,Calm,Calm,-,N/A,,Overcast,0,2013-01-31 22:45:00
1:53 PM,32.0,28.9,88,29.88,0.5,Calm,Calm,-,N/A,,Overcast,0,2013-01-31 22:53:00
2:49 PM,30.2,28.4,93,29.89,0.5,NNW,3.5,-,N/A,,Overcast,340,2013-01-31 23:49:00
2:53 PM,30.9,28.9,92,29.90,0.5,NNW,4.6,-,N/A,,Overcast,330,2013-01-31 23:53:00
3:11 PM,30.2,30.2,100,29.89,0.5,Calm,Calm,-,N/A,,Overcast,0,2013-02-01 00:11:00
3:20 PM,30.2,28.4,93,29.89,0.5,Calm,Calm,-,N/A,,Overcast,0,2013-02-01 00:20:00
3:53 PM,32.0,30.0,92,29.90,0.5,ENE,3.5,-,N/A,,Overcast,70,2013-02-01 00:53:00
4:47 PM,30.2,28.4,93,29.89,0.2,Calm,Calm,-,N/A,Fog,Light Freezing Fog,0,2013-02-01 01:47:00
4:53 PM,30.0,28.0,92,29.90,0.2,Calm,Calm,-,N/A,Fog,Light Freezing Fog,0,2013-02-01 01:53:00
5:18 PM,30.2,28.4,93,29.90,0.2,NNW,3.5,-,N/A,Fog,Light Freezing Fog,340,2013-02-01 02:18:00
5:31 PM,30.2,28.4,93,29.90,0.2,Calm,Calm,-,N/A,Fog,Light Freezing Fog,0,2013-02-01 02:31:00
5:53 PM,30.9,28.9,92,29.91,0.2,NNE,3.5,-,N/A,Fog,Light Freezing Fog,20,2013-02-01 02:53:00
6:07 PM,30.2,28.4,93,29.90,0.5,NNW,4.6,-,N/A,Fog,Light Freezing Fog,340,2013-02-01 03:07:00
6:50 PM,30.2,30.2,100,29.90,0.2,Calm,Calm,-,N/A,Fog,Light Freezing Fog,0,2013-02-01 03:50:00
6:53 PM,30.9,30.0,96,29.91,0.2,Calm,Calm,-,N/A,Fog,Light Freezing Fog,0,2013-02-01 03:53:00
7:53 PM,32.0,30.0,92,29.92,0.2,NE,6.9,-,N/A,Fog,Fog,40,2013-02-01 04:53:00
8:32 PM,33.8,30.2,87,29.92,0.2,North,4.6,-,N/A,Fog,Fog,350,2013-02-01 05:32:00
8:51 PM,33.8,30.2,87,29.92,0.2,North,5.8,-,N/A,Fog,Fog,360,2013-02-01 05:51:00
8:53 PM,33.1,30.0,89,29.92,0.2,North,4.6,-,N/A,Fog,Fog,360,2013-02-01 05:53:00
9:53 PM,33.1,30.0,89,29.93,0.2,Variable,6.9,-,N/A,Fog,Fog,0,2013-02-01 06:53:00
10:53 PM,32.0,28.9,88,29.94,0.2,North,4.6,-,N/A,,Overcast,10,2013-02-01 07:53:00
11:39 PM,32.0,28.4,87,29.93,1.0,NNE,4.6,-,N/A,,Overcast,20,2013-02-01 08:39:00
11:53 PM,32.0,28.9,88,29.95,1.0,North,3.5,-,N/A,,Overcast,360,2013-02-01 08:53:00